QPF
0.00 0.00 0.01 0.01 0.03 0.04 0.03 0.03 0.03 0.03 0.03 0.03 0.03 0.02 0.02 0.02 0.03 0.04 0.05 0.04 0.05 0.07 0.08 0.11 0.12 0.15 0.16 0.14 0.11 0.09 0.08 0.09 0.13 0.14 0.13 0.12 0.10 0.09 0.09 0.09 0.10 0.09 0.07
0.00 0.00 0.00 0.01 0.04 0.05 0.04 0.03 0.03 0.03 0.03 0.04 0.03 0.02 0.03 0.04 0.04 0.05 0.05 0.05 0.07 0.10 0.11 0.11 0.11 0.13 0.15 0.12 0.09 0.10 0.10 0.10 0.18 0.20 0.18 0.14 0.10 0.10 0.10 0.09 0.10 0.09 0.08
0.00 0.01 0.01 0.03 0.05 0.07 0.06 0.05 0.04 0.04 0.03 0.04 0.03 0.02 0.03 0.04 0.04 0.03 0.05 0.07 0.09 0.12 0.13 0.12 0.12 0.12 0.13 0.09 0.08 0.09 0.09 0.09 0.10 0.15 0.17 0.14 0.10 0.09 0.08 0.09 0.10 0.09 0.09
0.02 0.02 0.02 0.03 0.04 0.04 0.04 0.05 0.07 0.06 0.05 0.04 0.03 0.02 0.02 0.03 0.03 0.03 0.04 0.07 0.09 0.11 0.13 0.11 0.11 0.13 0.10 0.07 0.07 0.07 0.07 0.07 0.08 0.08 0.10 0.10 0.10 0.09 0.08 0.08 0.10 0.11 0.11
0.01 0.02 0.02 0.02 0.03 0.04 0.05 0.07 0.06 0.06 0.06 0.03 0.02 0.02 0.02 0.02 0.03 0.03 0.03 0.04 0.06 0.11 0.15 0.12 0.09 0.10 0.08 0.07 0.06 0.06 0.08 0.09 0.10 0.10 0.07 0.07 0.08 0.10 0.08 0.08 0.10 0.13 0.13
0.01 0.01 0.02 0.02 0.03 0.04 0.04 0.03 0.03 0.02 0.02 0.02 0.02 0.02 0.02 0.02 0.03 0.04 0.04 0.04 0.04 0.10 0.19 0.14 0.07 0.07 0.06 0.07 0.08 0.08 0.09 0.11 0.11 0.11 0.10 0.07 0.09 0.14 0.12 0.09 0.10 0.14 0.14
0.00 0.01 0.01 0.02 0.03 0.04 0.04 0.03 0.03 0.02 0.02 0.02 0.01 0.01 0.01 0.02 0.02 0.03 0.04 0.04 0.05 0.08 0.15 0.12 0.07 0.05 0.05 0.08 0.09 0.10 0.10 0.12 0.12 0.10 0.08 0.06 0.11 0.29 0.24 0.10 0.09 0.13 0.16
0.00 0.01 0.01 0.02 0.03 0.04 0.04 0.04 0.04 0.03 0.01 0.02 0.01 0.01 0.01 0.01 0.02 0.03 0.05 0.05 0.07 0.09 0.09 0.10 0.08 0.06 0.06 0.08 0.11 0.12 0.12 0.09 0.10 0.09 0.07 0.06 0.11 0.32 0.32 0.17 0.12 0.13 0.16
0.00 0.01 0.02 0.02 0.02 0.03 0.04 0.04 0.03 0.02 0.02 0.03 0.03 0.03 0.02 0.02 0.02 0.04 0.05 0.04 0.05 0.06 0.05 0.08 0.07 0.05 0.05 0.06 0.07 0.07 0.12 0.12 0.11 0.10 0.08 0.07 0.11 0.25 0.33 0.25 0.14 0.14 0.15
0.00 0.01 0.02 0.02 0.03 0.03 0.03 0.03 0.03 0.03 0.02 0.02 0.02 0.02 0.03 0.03 0.03 0.04 0.05 0.06 0.07 0.05 0.04 0.06 0.06 0.05 0.05 0.04 0.03 0.04 0.06 0.11 0.12 0.12 0.13 0.11 0.13 0.24 0.34 0.32 0.20 0.15 0.13
0.00 0.00 0.01 0.01 0.02 0.03 0.03 0.02 0.02 0.02 0.02 0.02 0.02 0.01 0.02 0.03 0.04 0.05 0.07 0.08 0.07 0.05 0.04 0.04 0.05 0.05 0.05 0.04 0.03 0.04 0.04 0.06 0.09 0.11 0.17 0.19 0.17 0.26 0.31 0.33 0.25 0.18 0.16
0.00 0.00 0.01 0.01 0.01 0.02 0.02 0.02 0.03 0.02 0.02 0.02 0.03 0.02 0.02 0.03 0.04 0.04 0.05 0.07 0.07 0.06 0.05 0.05 0.04 0.04 0.04 0.04 0.03 0.02 0.03 0.04 0.06 0.09 0.18 0.34 0.34 0.33 0.30 0.28 0.24 0.20 0.20
0.00 0.00 0.01 0.01 0.01 0.02 0.02 0.03 0.04 0.03 0.03 0.04 0.04 0.03 0.03 0.04 0.04 0.04 0.04 0.05 0.06 0.05 0.03 0.04 0.03 0.03 0.03 0.03 0.02 0.02 0.02 0.02 0.06 0.09 0.15 0.30 0.45 0.40 0.31 0.28 0.26 0.25 0.24
0.00 0.00 0.01 0.01 0.01 0.01 0.02 0.02 0.02 0.02 0.03 0.03 0.03 0.02 0.02 0.03 0.04 0.05 0.05 0.04 0.04 0.03 0.03 0.02 0.03 0.03 0.02 0.02 0.02 0.01 0.02 0.02 0.03 0.07 0.12 0.16 0.30 0.36 0.27 0.23 0.25 0.28 0.28
0.00 0.00 0.01 0.00 0.01 0.01 0.02 0.02 0.02 0.02 0.02 0.03 0.03 0.02 0.02 0.02 0.03 0.03 0.04 0.05 0.04 0.04 0.04 0.04 0.04 0.05 0.03 0.02 0.02 0.01 0.02 0.03 0.02 0.04 0.07 0.09 0.17 0.22 0.18 0.14 0.17 0.19 0.21
0.01 0.00 0.01 0.01 0.01 0.01 0.01 0.01 0.02 0.02 0.02 0.02 0.02 0.02 0.02 0.02 0.02 0.03 0.03 0.05 0.04 0.04 0.06 0.06 0.05 0.04 0.04 0.03 0.02 0.01 0.01 0.02 0.02 0.04 0.04 0.06 0.10 0.15 0.15 0.13 0.10 0.11 0.14
0.01 0.01 0.01 0.01 0.02 0.01 0.01 0.01 0.01 0.02 0.02 0.02 0.02 0.02 0.02 0.02 0.01 0.01 0.02 0.03 0.05 0.04 0.06 0.08 0.06 0.05 0.04 0.04 0.03 0.02 0.02 0.02 0.03 0.04 0.03 0.05 0.07 0.10 0.11 0.14 0.12 0.09 0.11
0.02 0.03 0.05 0.02 0.02 0.02 0.02 0.02 0.03 0.03 0.03 0.03 0.02 0.02 0.02 0.02 0.01 0.01 0.02 0.03 0.05 0.04 0.05 0.08 0.06 0.05 0.04 0.04 0.05 0.03 0.02 0.02 0.03 0.03 0.02 0.02 0.04 0.06 0.06 0.07 0.12 0.09 0.08
0.03 0.06 0.09 0.06 0.04 0.02 0.02 0.03 0.03 0.04 0.04 0.03 0.02 0.02 0.02 0.02 0.02 0.02 0.02 0.03 0.04 0.03 0.04 0.04 0.03 0.04 0.05 0.05 0.05 0.03 0.03 0.03 0.03 0.03 0.02 0.02 0.03 0.03 0.03 0.03 0.06 0.10 0.08
0.05 0.09 0.07 0.07 0.05 0.04 0.04 0.04 0.04 0.05 0.04 0.03 0.03 0.03 0.02 0.01 0.01 0.01 0.01 0.02 0.02 0.03 0.04 0.04 0.03 0.03 0.03 0.05 0.04 0.03 0.02 0.02 0.02 0.02 0.02 0.03 0.03 0.02 0.02 0.02 0.03 0.05 0.09
0.03 0.08 0.07 0.05 0.04 0.04 0.04 0.04 0.04 0.05 0.05 0.06 0.05 0.03 0.02 0.01 0.01 0.01 0.01 0.02 0.03 0.03 0.03 0.05 0.04 0.04 0.03 0.04 0.04 0.03 0.02 0.01 0.01 0.01 0.01 0.01 0.01 0.01 0.02 0.02 0.02 0.03 0.05
0.01 0.04 0.05 0.04 0.03 0.02 0.03 0.03 0.03 0.03 0.06 0.07 0.04 0.03 0.03 0.02 0.02 0.01 0.02 0.03 0.04 0.05 0.05 0.04 0.04 0.04 0.03 0.03 0.04 0.04 0.03 0.03 0.02 0.01 0.00 0.00 0.01 0.01 0.01 0.01 0.01 0.02 0.03
0.01 0.02 0.03 0.03 0.02 0.02 0.03 0.04 0.04 0.05 0.09 0.12 0.07 0.04 0.04 0.04 0.03 0.03 0.03 0.03 0.04 0.04 0.05 0.05 0.04 0.04 0.04 0.04 0.04 0.04 0.05 0.04 0.02 0.01 0.00 0.00 0.00 0.01 0.01 0.01 0.01 0.02 0.02
0.01 0.01 0.02 0.03 0.02 0.02 0.03 0.04 0.04 0.04 0.05 0.08 0.07 0.04 0.05 0.04 0.04 0.04 0.03 0.03 0.04 0.04 0.05 0.05 0.04 0.04 0.04 0.05 0.05 0.04 0.04 0.05 0.04 0.03 0.02 0.01 0.01 0.01 0.01 0.01 0.02 0.03 0.03
0.02 0.02 0.02 0.03 0.03 0.03 0.03 0.03 0.03 0.03 0.02 0.02 0.03 0.03 0.05 0.05 0.05 0.04 0.04 0.04 0.05 0.05 0.05 0.06 0.05 0.04 0.04 0.04 0.06 0.06 0.05 0.04 0.03 0.03 0.03 0.03 0.02 0.01 0.01 0.01 0.03 0.03 0.03
0.01 0.02 0.03 0.02 0.03 0.02 0.03 0.02 0.02 0.02 0.02 0.02 0.02 0.03 0.04 0.04 0.04 0.03 0.03 0.04 0.04 0.04 0.04 0.05 0.05 0.04 0.03 0.04 0.05 0.05 0.05 0.05 0.05 0.05 0.04 0.03 0.03 0.03 0.02 0.01 0.02 0.02 0.03
MSLP
1008.77 1008.83 1009.06 1009.42 1009.80 1010.12 1010.26 1010.19 1009.88 1009.37 1008.73 1008.06 1007.46 1007.00 1006.69 1006.52 1006.41 1006.27 1005.97 1005.45 1004.66 1003.64 1002.46 1001.25 1000.16 999.32 998.84 998.76 999.07 999.73 1000.64 1001.69 1002.81 1003.93 1004.99 1005.99 1006.93 1007.81 1008.62 1009.37 1010.02 1010.55 1010.96
1008.77 1008.93 1009.24 1009.64 1010.03 1010.33 1010.45 1010.34 1010.02 1009.51 1008.91 1008.29 1007.75 1007.34 1007.08 1006.94 1006.84 1006.71 1006.44 1005.97 1005.28 1004.40 1003.41 1002.41 1001.52 1000.85 1000.49 1000.47 1000.77 1001.35 1002.13 1003.05 1004.03 1005.01 1005.96 1006.87 1007.74 1008.56 1009.32 1010.00 1010.59 1011.07 1011.41
1008.73 1009.00 1009.38 1009.81 1010.21 1010.50 1010.60 1010.49 1010.18 1009.72 1009.18 1008.65 1008.19 1007.85 1007.63 1007.50 1007.39 1007.24 1006.98 1006.55 1005.96 1005.23 1004.43 1003.66 1002.99 1002.51 1002.28 1002.31 1002.59 1003.08 1003.73 1004.49 1005.30 1006.13 1006.95 1007.76 1008.53 1009.27 1009.95 1010.56 1011.08 1011.48 1011.77
1008.67 1009.02 1009.46 1009.92 1010.33 1010.62 1010.72 1010.64 1010.37 1009.98 1009.54 1009.11 1008.75 1008.48 1008.29 1008.16 1008.04 1007.85 1007.57 1007.17 1006.66 1006.07 1005.46 1004.90 1004.44 1004.15 1004.04 1004.12 1004.37 1004.77 1005.28 1005.87 1006.52 1007.19 1007.88 1008.57 1009.25 1009.89 1010.49 1011.01 1011.45 1011.79 1012.02
1008.61 1009.02 1009.50 1009.99 1010.41 1010.70 1010.82 1010.77 1010.57 1010.27 1009.94 1009.63 1009.36 1009.17 1009.01 1008.88 1008.72 1008.50 1008.19 1007.80 1007.36 1006.89 1006.45 1006.07 1005.80 1005.66 1005.64 1005.75 1005.97 1006.27 1006.65 1007.09 1007.59 1008.12 1008.70 1009.28 1009.87 1010.43 1010.94 1011.37 1011.73 1012.00 1012.19
1008.59 1009.02 1009.52 1010.02 1010.45 1010.74 1010.89 1010.88 1010.75 1010.55 1010.33 1010.13 1009.96 1009.84 1009.72 1009.58 1009.39 1009.13 1008.80 1008.42 1008.03 1007.66 1007.34 1007.12 1006.99 1006.96 1007.01 1007.13 1007.30 1007.51 1007.77 1008.08 1008.45 1008.89 1009.37 1009.88 1010.39 1010.87 1011.31 1011.67 1011.95 1012.16 1012.32
1008.61 1009.06 1009.56 1010.05 1010.46 1010.76 1010.92 1010.95 1010.89 1010.77 1010.65 1010.55 1010.48 1010.41 1010.33 1010.20 1010.00 1009.72 1009.37 1009.00 1008.65 1008.35 1008.14 1008.02 1007.99 1008.03 1008.11 1008.21 1008.32 1008.45 1008.61 1008.83 1009.11 1009.48 1009.90 1010.37 1010.83 1011.27 1011.64 1011.93 1012.15 1012.30 1012.42
1008.70 1009.13 1009.61 1010.08 1010.48 1010.76 1010.93 1010.98 1010.96 1010.91 1010.87 1010.85 1010.85 1010.84 1010.80 1010.68 1010.48 1010.20 1009.87 1009.52 1009.20 1008.96 1008.82 1008.77 1008.79 1008.86 1008.93 1009.00 1009.05 1009.11 1009.20 1009.35 1009.59 1009.92 1010.33 1010.78 1011.23 1011.63 1011.96 1012.20 1012.36 1012.46 1012.53
1008.84 1009.25 1009.70 1010.13 1010.50 1010.76 1010.92 1010.97 1010.97 1010.96 1010.96 1011.00 1011.05 1011.09 1011.09 1011.01 1010.83 1010.57 1010.26 1009.95 1009.68 1009.48 1009.38 1009.37 1009.41 1009.47 1009.53 1009.55 1009.55 1009.55 1009.60 1009.71 1009.94 1010.27 1010.69 1011.15 1011.61 1012.00 1012.30 1012.49 1012.59 1012.64 1012.66
1009.01 1009.39 1009.82 1010.22 1010.55 1010.78 1010.90 1010.94 1010.94 1010.94 1010.96 1011.02 1011.11 1011.19 1011.22 1011.18 1011.05 1010.83 1010.56 1010.29 1010.06 1009.90 1009.83 1009.83 1009.88 1009.93 1009.95 1009.94 1009.90 1009.87 1009.88 1009.99 1010.22 1010.57 1011.02 1011.50 1011.97 1012.36 1012.64 1012.80 1012.85 1012.83 1012.81
1009.20 1009.56 1009.96 1010.33 1010.62 1010.81 1010.91 1010.92 1010.90 1010.88 1010.90 1010.97 1011.07 1011.18 1011.25 1011.25 1011.16 1010.99 1010.78 1010.56 1010.37 1010.24 1010.19 1010.20 1010.24 1010.28 1010.28 1010.24 1010.18 1010.13 1010.14 1010.25 1010.49 1010.86 1011.33 1011.84 1012.32 1012.71 1012.97 1013.09 1013.10 1013.03 1012.94
1009.38 1009.74 1010.12 1010.46 1010.72 1010.89 1010.95 1010.93 1010.88 1010.84 1010.84 1010.90 1011.01 1011.13 1011.22 1011.26 1011.22 1011.11 1010.94 1010.77 1010.62 1010.52 1010.48 1010.50 1010.54 1010.56 1010.56 1010.52 1010.45 1010.40 1010.42 1010.54 1010.79 1011.17 1011.64 1012.15 1012.62 1013.00 1013.24 1013.34 1013.31 1013.19 1013.06
1009.55 1009.92 1010.29 1010.62 1010.86 1011.00 1011.04 1011.00 1010.93 1010.86 1010.84 1010.89 1010.99 1011.11 1011.22 1011.29 1011.29 1011.22 1011.10 1010.96 1010.84 1010.76 1010.74 1010.76 1010.80 1010.84 1010.85 1010.82 1010.77 1010.74 1010.76 1010.89 1011.13 1011.49 1011.94 1012.42 1012.86 1013.21 1013.43 1013.50 1013.44 1013.30 1013.13
1009.70 1010.09 1010.47 1010.79 1011.03 1011.16 1011.19 1011.14 1011.06 1010.98 1010.94 1010.97 1011.06 1011.18 1011.30 1011.39 1011.42 1011.38 1011.28 1011.17 1011.07 1011.00 1010.99 1011.02 1011.07 1011.13 1011.17 1011.18 1011.16 1011.15 1011.19 1011.30 1011.51 1011.83 1012.21 1012.63 1013.01 1013.32 1013.50 1013.55 1013.49 1013.34 1013.15
1009.86 1010.26 1010.65 1010.98 1011.23 1011.37 1011.40 1011.36 1011.27 1011.19 1011.15 1011.17 1011.24 1011.36 1011.48 1011.58 1011.62 1011.60 1011.52 1011.42 1011.33 1011.27 1011.26 1011.30 1011.38 1011.47 1011.55 1011.60 1011.63 1011.64 1011.68 1011.77 1011.93 1012.17 1012.46 1012.79 1013.09 1013.33 1013.47 1013.51 1013.45 1013.31 1013.13
1010.01 1010.43 1010.83 1011.18 1011.44 1011.60 1011.66 1011.64 1011.57 1011.50 1011.45 1011.47 1011.54 1011.65 1011.77 1011.86 1011.91 1011.90 1011.83 1011.73 1011.64 1011.59 1011.58 1011.63 1011.73 1011.86 1011.98 1012.08 1012.15 1012.19 1012.23 1012.28 1012.37 1012.51 1012.69 1012.90 1013.11 1013.27 1013.37 1013.40 1013.34 1013.23 1013.09
1010.17 1010.60 1011.01 1011.37 1011.66 1011.84 1011.94 1011.95 1011.91 1011.86 1011.83 1011.84 1011.91 1012.01 1012.12 1012.21 1012.26 1012.25 1012.19 1012.10 1012.01 1011.95 1011.95 1012.01 1012.13 1012.29 1012.45 1012.60 1012.70 1012.76 1012.79 1012.80 1012.82 1012.86 1012.93 1013.02 1013.11 1013.20 1013.26 1013.27 1013.24 1013.16 1013.06
1010.33 1010.77 1011.19 1011.56 1011.87 1012.09 1012.22 1012.28 1012.27 1012.25 1012.23 1012.24 1012.30 1012.39 1012.49 1012.58 1012.63 1012.63 1012.58 1012.50 1012.41 1012.36 1012.36 1012.43 1012.56 1012.74 1012.94 1013.11 1013.25 1013.33 1013.35 1013.32 1013.27 1013.22 1013.18 1013.16 1013.16 1013.17 1013.19 1013.19 1013.17 1013.13 1013.07
1010.48 1010.93 1011.35 1011.74 1012.07 1012.32 1012.50 1012.59 1012.63 1012.63 1012.62 1012.63 1012.68 1012.76 1012.85 1012.93 1012.99 1013.00 1012.97 1012.91 1012.84 1012.80 1012.80 1012.88 1013.01 1013.20 1013.41 1013.60 1013.76 1013.85 1013.87 1013.82 1013.72 1013.60 1013.47 1013.37 1013.29 1013.24 1013.21 1013.20 1013.20 1013.18 1013.15
1010.60 1011.06 1011.49 1011.89 1012.24 1012.53 1012.74 1012.88 1012.95 1012.98 1012.98 1012.99 1013.03 1013.09 1013.17 1013.25 1013.32 1013.35 1013.35 1013.32 1013.28 1013.25 1013.26 1013.33 1013.46 1013.64 1013.85 1014.05 1014.21 1014.31 1014.33 1014.28 1014.16 1014.00 1013.82 1013.66 1013.52 1013.42 1013.37 1013.35 1013.34 1013.34 1013.32
1010.67 1011.13 1011.58 1011.99 1012.36 1012.69 1012.95 1013.13 1013.24 1013.29 1013.31 1013.32 1013.33 1013.38 1013.45 1013.53 1013.61 1013.68 1013.71 1013.72 1013.71 1013.71 1013.72 1013.78 1013.90 1014.05 1014.24 1014.43 1014.59 1014.70 1014.73 1014.69 1014.57 1014.40 1014.21 1014.02 1013.85 1013.73 1013.65 1013.61 1013.61 1013.61 1013.60
1010.66 1011.14 1011.60 1012.03 1012.44 1012.80 1013.10 1013.33 1013.49 1013.57 1013.60 1013.61 1013.62 1013.65 1013.71 1013.79 1013.89 1013.98 1014.06 1014.11 1014.14 1014.16 1014.18 1014.23 1014.32 1014.44 1014.60 1014.76 1014.91 1015.02 1015.07 1015.05 1014.95 1014.80 1014.62 1014.43 1014.26 1014.13 1014.03 1013.98 1013.97 1013.96 1013.94
1010.56 1011.06 1011.54 1012.00 1012.44 1012.85 1013.21 1013.49 1013.70 1013.82 1013.87 1013.88 1013.89 1013.91 1013.96 1014.05 1014.16 1014.29 1014.40 1014.50 1014.56 1014.61 1014.64 1014.67 1014.72 1014.81 1014.92 1015.05 1015.18 1015.28 1015.35 1015.36 1015.30 1015.19 1015.04 1014.87 1014.71 1014.57 1014.47 1014.41 1014.38 1014.37 1014.34
1010.35 1010.89 1011.39 1011.88 1012.37 1012.83 1013.25 1013.59 1013.86 1014.03 1014.12 1014.15 1014.16 1014.17 1014.22 1014.31 1014.44 1014.59 1014.74 1014.88 1014.98 1015.05 1015.09 1015.11 1015.13 1015.17 1015.24 1015.32 1015.43 1015.53 1015.60 1015.63 1015.61 1015.54 1015.43 1015.29 1015.14 1015.01 1014.90 1014.83 1014.79 1014.78 1014.75
1010.05 1010.63 1011.16 1011.69 1012.22 1012.73 1013.21 1013.63 1013.96 1014.19 1014.33 1014.39 1014.42 1014.44 1014.49 1014.58 1014.72 1014.89 1015.08 1015.25 1015.38 1015.47 1015.52 1015.53 1015.53 1015.54 1015.56 1015.61 1015.69 1015.77 1015.85 1015.90 1015.91 1015.87 1015.79 1015.67 1015.54 1015.41 1015.30 1015.22 1015.18 1015.16 1015.14
1009.67 1010.28 1010.85 1011.42 1011.99 1012.56 1013.11 1013.60 1014.00 1014.30 1014.49 1014.60 1014.65 1014.68 1014.74 1014.83 1014.98 1015.17 1015.38 1015.58 1015.74 1015.86 1015.92 1015.94 1015.93 1015.91 1015.91 1015.93 1015.98 1016.05 1016.12 1016.18 1016.20 1016.18 1016.12 1016.01 1015.89 1015.76 1015.64 1015.56 1015.51 1015.49 1015.48
Thickness
5813 5808 5796 5793 5790 5787 5785 5783 5781 5780 5778 5776 5775 5774 5773 5773 5772 5771 5771 5770 5769 5768 5767 5767 5766 5765 5764 5763 5762 5762 5761 5760 5760 5759 5758 5758 5757 5756 5755 5754 5755 5755 5752
5815 5807 5795 5792 5789 5786 5784 5782 5780 5778 5776 5775 5773 5772 5771 5770 5770 5769 5769 5768 5767 5766 5766 5765 5764 5763 5762 5761 5760 5760 5759 5758 5757 5757 5756 5756 5755 5754 5753 5753 5754 5753 5751
5813 5805 5795 5790 5787 5784 5782 5780 5778 5776 5774 5773 5771 5770 5769 5768 5767 5767 5766 5765 5765 5764 5763 5763 5762 5761 5760 5759 5758 5758 5757 5756 5755 5755 5755 5757 5755 5752 5752 5751 5751 5750 5748
5811 5804 5797 5788 5785 5782 5780 5778 5776 5774 5772 5771 5769 5768 5767 5766 5765 5764 5764 5763 5763 5762 5761 5760 5759 5758 5758 5757 5756 5756 5755 5754 5754 5754 5757 5757 5755 5752 5751 5750 5749 5748 5747
5809 5804 5794 5787 5784 5780 5778 5776 5773 5771 5770 5768 5767 5765 5764 5764 5763 5762 5761 5761 5760 5760 5759 5758 5757 5756 5756 5755 5755 5754 5753 5752 5753 5754 5756 5755 5753 5750 5750 5749 5748 5747 5746
5808 5802 5792 5785 5782 5779 5776 5773 5771 5769 5767 5765 5764 5763 5762 5761 5760 5760 5759 5758 5758 5757 5756 5755 5754 5754 5754 5753 5753 5752 5752 5752 5753 5756 5755 5754 5752 5750 5749 5748 5747 5746 5745
5806 5801 5791 5783 5780 5777 5774 5771 5769 5766 5764 5762 5761 5760 5759 5758 5758 5757 5757 5756 5755 5755 5754 5753 5753 5752 5751 5751 5751 5750 5751 5752 5755 5755 5754 5753 5751 5750 5750 5748 5746 5745 5744
5804 5799 5790 5782 5778 5775 5772 5769 5767 5764 5762 5760 5759 5757 5756 5755 5754 5754 5754 5753 5753 5752 5751 5751 5750 5750 5750 5749 5749 5749 5749 5750 5755 5755 5753 5752 5748 5748 5748 5746 5745 5744 5743
5803 5798 5791 5785 5779 5774 5770 5767 5765 5762 5760 5758 5757 5755 5754 5753 5752 5751 5751 5751 5750 5749 5749 5749 5748 5748 5747 5747 5747 5747 5748 5750 5754 5753 5752 5750 5747 5746 5745 5744 5744 5743 5741
5800 5796 5791 5787 5782 5777 5772 5766 5763 5761 5759 5757 5755 5754 5753 5751 5750 5750 5750 5749 5748 5747 5747 5747 5746 5746 5746 5745 5745 5745 5747 5748 5753 5752 5750 5748 5746 5745 5744 5743 5742 5741 5740
5796 5794 5791 5787 5783 5779 5774 5767 5763 5760 5758 5756 5754 5752 5752 5753 5753 5751 5749 5747 5746 5746 5745 5745 5744 5744 5744 5745 5744 5745 5746 5751 5751 5750 5748 5745 5745 5743 5742 5742 5741 5740 5739
5792 5792 5791 5786 5782 5779 5774 5769 5765 5763 5759 5757 5756 5754 5754 5753 5752 5751 5747 5745 5745 5744 5744 5744 5743 5744 5745 5747 5746 5745 5748 5750 5749 5747 5745 5742 5742 5741 5740 5740 5739 5738 5737
5794 5790 5789 5785 5781 5777 5773 5770 5766 5764 5760 5758 5755 5753 5752 5752 5751 5750 5748 5746 5746 5745 5746 5744 5746 5747 5747 5747 5747 5747 5747 5748 5748 5746 5742 5740 5740 5739 5739 5738 5737 5736 5735
5793 5789 5787 5784 5780 5776 5772 5769 5766 5763 5760 5758 5754 5752 5751 5750 5749 5748 5747 5747 5747 5747 5745 5746 5746 5745 5745 5745 5746 5746 5746 5746 5746 5744 5739 5737 5737 5737 5737 5736 5736 5734 5733
5791 5787 5785 5782 5778 5774 5770 5767 5765 5762 5760 5757 5753 5751 5749 5749 5748 5747 5745 5744 5746 5746 5745 5744 5744 5743 5743 5743 5744 5744 5743 5743 5743 5742 5738 5736 5734 5734 5734 5734 5733 5732 5731
5789 5785 5783 5779 5775 5771 5768 5765 5763 5761 5757 5756 5753 5750 5748 5748 5747 5745 5744 5743 5744 5744 5744 5743 5743 5742 5742 5741 5741 5741 5741 5741 5740 5739 5738 5736 5734 5733 5732 5731 5731 5730 5729
5788 5784 5780 5777 5774 5769 5767 5763 5761 5759 5756 5754 5751 5748 5746 5746 5744 5744 5743 5742 5742 5742 5741 5741 5741 5741 5740 5739 5738 5738 5738 5737 5737 5737 5737 5737 5735 5732 5730 5730 5729 5728 5727
5787 5782 5778 5777 5772 5767 5764 5761 5760 5758 5755 5753 5750 5748 5745 5743 5742 5741 5742 5742 5740 5741 5741 5740 5740 5739 5738 5737 5736 5736 5736 5735 5734 5734 5735 5735 5734 5733 5730 5729 5728 5727 5726
5785 5780 5776 5773 5769 5766 5762 5759 5758 5755 5753 5751 5749 5747 5744 5741 5740 5740 5740 5739 5738 5739 5739 5739 5739 5737 5735 5734 5734 5733 5734 5734 5733 5734 5733 5733 5732 5731 5731 5728 5727 5726 5725
5782 5778 5773 5770 5766 5763 5760 5757 5755 5752 5751 5749 5747 5744 5741 5740 5738 5738 5738 5736 5737 5737 5736 5735 5733 5733 5732 5732 5732 5731 5732 5732 5732 5732 5732 5732 5731 5731 5730 5730 5728 5727 5724
5778 5774 5770 5767 5764 5761 5758 5755 5752 5749 5748 5746 5744 5741 5738 5737 5736 5736 5737 5735 5734 5734 5733 5733 5732 5730 5730 5730 5728 5727 5729 5730 5730 5730 5731 5732 5732 5730 5729 5728 5728 5727 5726
5774 5770 5767 5764 5762 5759 5757 5754 5751 5749 5746 5744 5741 5738 5736 5735 5734 5735 5733 5734 5733 5731 5729 5728 5728 5728 5729 5728 5726 5724 5722 5724 5725 5730 5729 5729 5729 5729 5729 5728 5726 5724 5724
5771 5768 5766 5763 5759 5757 5755 5752 5748 5745 5742 5740 5737 5736 5734 5733 5732 5731 5731 5731 5730 5730 5728 5725 5725 5724 5724 5725 5726 5723 5719 5718 5722 5724 5725 5726 5726 5726 5726 5726 5724 5723 5721
5769 5767 5764 5760 5756 5754 5752 5749 5746 5742 5738 5737 5735 5734 5732 5731 5730 5729 5728 5727 5727 5727 5724 5724 5724 5723 5722 5721 5723 5722 5721 5721 5717 5717 5721 5723 5723 5722 5722 5723 5723 5721 5719
5767 5764 5761 5757 5753 5751 5749 5746 5743 5741 5738 5736 5734 5730 5729 5729 5727 5727 5725 5724 5723 5723 5721 5720 5720 5720 5720 5720 5720 5720 5719 5717 5718 5715 5713 5716 5718 5720 5720 5719 5719 5719 5718
5763 5761 5757 5753 5749 5747 5745 5743 5739 5736 5734 5731 5729 5727 5727 5727 5725 5724 5723 5721 5720 5720 5718 5717 5717 5717 5717 5717 5717 5718 5717 5716 5715 5714 5711 5711 5712 5715 5717 5717 5716 5716 5715